Portada
METAR-TAF:

METAR-TAF

Aeroports :

Buixehr, Iran

latitud: 28-59N, longitud: 050-50E, altitud: 19 m

Observació

L'informe es va fer fa 37 minuts, a les 02:00 UTC
Vent 6 kt del Est/Nord-Est
Temperatura 20°C
Humitat 83%
Pressió 1017 hPa
Visibilitat: 3000 m
Núvols disperses a una alçada de 4000 ft
Cel ennuvolat a una alçada de 10000 ft
boirina

METAR: OIBB 020200Z 06006KT 3000 BR SCT040 BKN100 20/17 Q1017 A3004

Hora: 06:07 (02:37 UTC)


TAF: manca

Observacions i pronòstics meteorològics de més de 4000 aeroports (METAR i TAF).

Les estacions disponibles són els punts grocs i vermells al mapa.

Posi el ratolí al punt desitjat per veure el nom de l'estació.

Feu clic per veure les observacions i els pronòstics meteorològics.

Per canviar el mapa: feu clic els botons verds amb una creu de color negre per apropar; al botó verd amb un guió per allunyar la imatge; o en les fletxes verdes per a mapes adjacents.


METAR-TAF: